TimePDT,TemperatureF,Dew PointF,Humidity,Sea Level PressureIn,VisibilityMPH,Wind Direction,Wind SpeedMPH,Gust SpeedMPH,PrecipitationIn,Events,Conditions,WindDirDegrees,DateUTC
12:55 AM,39.9,32.0,73,29.83,10.0,NNW,9.2,-,N/A,,Overcast,330,2012-10-22 07:55:00
1:55 AM,39.9,30.9,70,29.83,10.0,NW,6.9,-,N/A,,Mostly Cloudy,310,2012-10-22 08:55:00
2:55 AM,39.0,32.0,76,29.82,10.0,NNW,3.5,-,N/A,,Overcast,330,2012-10-22 09:55:00
3:55 AM,39.9,32.0,73,29.81,10.0,Calm,Calm,-,N/A,,Overcast,0,2012-10-22 10:55:00
4:55 AM,39.9,32.0,73,29.78,10.0,Calm,Calm,-,N/A,,Overcast,0,2012-10-22 11:55:00
6:55 AM,39.9,32.0,73,29.75,10.0,West,5.8,-,N/A,,Overcast,280,2012-10-22 13:55:00
7:55 AM,41.0,30.9,67,29.73,10.0,West,9.2,-,0.00,Rain,Light Rain,270,2012-10-22 14:55:00
8:50 AM,39.2,33.8,81,29.70,9.0,West,5.8,-,0.00,Rain,Light Rain,270,2012-10-22 15:50:00
8:55 AM,39.9,34.0,79,29.72,9.0,WNW,4.6,-,0.00,Rain,Light Rain,300,2012-10-22 15:55:00
9:18 AM,39.2,35.6,87,29.69,10.0,West,8.1,-,0.00,Rain,Light Rain,260,2012-10-22 16:18:00
9:48 AM,39.2,33.8,81,29.68,10.0,WSW,6.9,123.1,0.01,Rain,Light Rain,250,2012-10-22 16:48:00
9:55 AM,39.9,34.0,79,29.70,10.0,West,9.2,-,0.01,Rain,Light Rain,260,2012-10-22 16:55:00
10:04 AM,39.2,35.6,87,29.68,10.0,West,8.1,-,0.00,Rain,Light Rain,270,2012-10-22 17:04:00
10:34 AM,39.2,33.8,81,29.66,10.0,West,6.9,-,0.00,Rain,Light Rain,260,2012-10-22 17:34:00
10:55 AM,39.9,35.1,83,29.67,8.0,West,9.2,-,0.01,Rain,Light Rain,260,2012-10-22 17:55:00
11:55 AM,39.9,35.1,83,29.64,7.0,West,8.1,-,0.04,Rain,Light Rain,260,2012-10-22 18:55:00
12:55 PM,39.9,34.0,79,29.61,4.0,West,4.6,-,0.04,Rain,Light Rain,260,2012-10-22 19:55:00
1:55 PM,39.0,35.1,86,29.60,6.0,NW,4.6,-,0.06,Rain,Light Rain,310,2012-10-22 20:55:00
2:09 PM,39.2,35.6,87,29.57,5.0,WNW,5.8,-,0.02,Rain,Light Rain,300,2012-10-22 21:09:00
2:55 PM,39.9,35.1,83,29.59,6.0,WNW,5.8,-,0.05,Rain,Light Rain,300,2012-10-22 21:55:00
3:26 PM,39.2,35.6,87,29.58,3.0,NW,4.6,-,0.04,Rain,Light Rain,310,2012-10-22 22:26:00
3:52 PM,39.2,35.6,87,29.58,2.5,NW,6.9,-,0.08,Rain,Rain,310,2012-10-22 22:52:00
3:55 PM,39.0,34.0,82,29.60,2.5,WNW,5.8,-,0.09,Rain,Rain,300,2012-10-22 22:55:00
4:06 PM,39.2,33.8,81,29.59,3.0,NW,6.9,-,0.02,Rain,Rain,310,2012-10-22 23:06:00
4:26 PM,39.2,33.8,81,29.59,3.0,North,4.6,-,0.06,Rain,Rain,350,2012-10-22 23:26:00
4:35 PM,37.4,33.8,87,29.59,4.0,NNW,4.6,-,0.07,Rain,Light Rain,330,2012-10-22 23:35:00
4:47 PM,37.4,33.8,87,29.60,5.0,North,3.5,-,0.09,Rain,Light Rain,350,2012-10-22 23:47:00
5:55 PM,39.0,34.0,82,29.61,10.0,NW,3.5,-,0.06,Rain,Light Rain,310,2012-10-23 00:55:00
6:05 PM,39.2,33.8,81,29.59,10.0,NNW,3.5,-,0.00,Rain,Light Rain,330,2012-10-23 01:05:00
6:55 PM,39.0,34.0,82,29.62,10.0,NW,4.6,-,0.01,Rain,Light Rain,320,2012-10-23 01:55:00
7:55 PM,39.0,34.0,82,29.62,10.0,West,3.5,-,0.00,,Overcast,280,2012-10-23 02:55:00
8:19 PM,37.4,35.6,93,29.60,10.0,WSW,3.5,-,N/A,,Overcast,250,2012-10-23 03:19:00
8:55 PM,39.0,35.1,86,29.63,10.0,Calm,Calm,-,N/A,,Overcast,0,2012-10-23 03:55:00
9:07 PM,39.2,35.6,87,29.61,10.0,Calm,Calm,-,N/A,,Overcast,0,2012-10-23 04:07:00
9:16 PM,39.2,35.6,87,29.61,10.0,Calm,Calm,-,N/A,,Overcast,0,2012-10-23 04:16:00
10:02 PM,37.4,35.6,93,29.62,10.0,Calm,Calm,-,N/A,,Overcast,0,2012-10-23 05:02:00